| time (UTC) | temp F | wind direction | speed MPH | gust MPH | rain 1hr in | rain 24hr in | rain mn in | humidity % | barometer mb |
| 20260505153343 | 0 | 0.0 | 0.0 | 0.00 | 0.00 | 0.00 | 33 | 1006.4 | |
| 20260505152843 | 0 | 0.0 | 0.0 | 0.00 | 0.00 | 0.00 | 33 | 1006.6 | |
| 20260505152343 | 0 | 0.0 | 0.0 | 0.00 | 0.00 | 0.00 | 33 | 1006.5 | |
| 20260505151843 | 0 | 0.0 | 0.0 | 0.00 | 0.00 | 0.00 | 33 | 1006.3 | |
| 20260505151343 | 0 | 0.0 | 0.0 | 0.00 | 0.00 | 0.00 | 33 | 1006.4 | |
| 20260505150843 | 0 | 0.0 | 0.0 | 0.00 | 0.00 | 0.00 | 33 | 1006.4 | |
| 20260505150343 | 0 | 0.0 | 0.0 | 0.00 | 0.00 | 0.00 | 33 | 1006.3 | |
| 20260505140343 | 0 | 0.0 | 0.0 | 0.00 | 0.00 | 0.00 | 31 | 1005.9 | |
| 20260505124843 | 0 | 0.0 | 0.0 | 0.00 | 0.00 | 0.00 | 27 | 1007.2 | |
| 20260505124343 | 0 | 0.0 | 0.0 | 0.00 | 0.00 | 0.00 | 31 | 1007.2 | |
| 20260505123843 | 0 | 0.0 | 0.0 | 0.00 | 0.00 | 0.00 | 32 | 1007.2 | |
| 20260505123343 | 0 | 0.0 | 0.0 | 0.00 | 0.00 | 0.00 | 32 | 1007.2 | |
| 20260505122843 | 0 | 0.0 | 0.0 | 0.00 | 0.00 | 0.00 | 32 | 1007.2 | |
| 20260505122343 | 0 | 0.0 | 0.0 | 0.00 | 0.00 | 0.00 | 32 | 1007.3 | |
| 20260505121843 | 0 | 0.0 | 0.0 | 0.00 | 0.00 | 0.00 | 31 | 1007.3 | |
| 20260505121343 | 0 | 0.0 | 0.0 | 0.00 | 0.00 | 0.00 | 31 | 1007.3 | |
| 20260505120843 | 0 | 0.0 | 0.0 | 0.00 | 0.00 | 0.00 | 32 | 1007.4 | |
| 20260505120343 | 0 | 0.0 | 0.0 | 0.00 | 0.00 | 0.00 | 32 | 1007.4 | |
| 20260505115843 | 0 | 0.0 | 0.0 | 0.00 | 0.00 | 0.00 | 32 | 1007.5 | |
| 20260505115343 | 0 | 0.0 | 0.0 | 0.00 | 0.00 | 0.00 | 32 | 1007.5 | |
| 20260505114843 | 0 | 0.0 | 0.0 | 0.00 | 0.00 | 0.00 | 32 | 1007.4 | |
| 20260505114343 | 0 | 0.0 | 0.0 | 0.00 | 0.00 | 0.00 | 33 | 1007.4 | |
| 20260505113843 | 0 | 0.0 | 0.0 | 0.00 | 0.00 | 0.00 | 33 | 1007.5 | |
| 20260505113343 | 0 | 0.0 | 0.0 | 0.00 | 0.00 | 0.00 | 33 | 1007.5 | |
| 20260505112843 | 0 | 0.0 | 0.0 | 0.00 | 0.00 | 0.00 | 33 | 1007.5 | |
| 20260505112343 | 0 | 0.0 | 0.0 | 0.00 | 0.00 | 0.00 | 33 | 1007.6 | |
| 20260505111843 | 0 | 0.0 | 0.0 | 0.00 | 0.00 | 0.00 | 32 | 1007.6 | |
| 20260505111343 | 0 | 0.0 | 0.0 | 0.00 | 0.00 | 0.00 | 33 | 1007.7 | |
| 20260505110843 | 0 | 0.0 | 0.0 | 0.00 | 0.00 | 0.00 | 33 | 1007.7 | |
| 20260505110343 | 0 | 0.0 | 0.0 | 0.00 | 0.00 | 0.00 | 33 | 1007.7 | |
| 20260505101843 | 0 | 0.0 | 0.0 | 0.00 | 0.00 | 0.00 | 33 | 1007.9 | |
| 20260505101343 | 0 | 0.0 | 0.0 | 0.00 | 0.00 | 0.00 | 33 | 1008.0 | |
| 20260505100843 | 0 | 0.0 | 0.0 | 0.00 | 0.00 | 0.00 | 33 | 1008.0 | |
| 20260505100343 | 0 | 0.0 | 0.0 | 0.00 | 0.00 | 0.00 | 33 | 1008.1 | |
| 20260505095843 | 0 | 0.0 | 0.0 | 0.00 | 0.00 | 0.00 | 33 | 1008.1 | |
| 20260505095343 | 0 | 0.0 | 0.0 | 0.00 | 0.00 | 0.00 | 33 | 1008.2 | |
| 20260505094843 | 0 | 0.0 | 0.0 | 0.00 | 0.00 | 0.00 | 33 | 1008.3 | |
| 20260505094343 | 0 | 0.0 | 0.0 | 0.00 | 0.00 | 0.00 | 32 | 1008.2 | |
| 20260505093843 | 0 | 0.0 | 0.0 | 0.00 | 0.00 | 0.00 | 32 | 1008.2 | |
| 20260505093343 | 0 | 0.0 | 0.0 | 0.00 | 0.00 | 0.00 | 32 | 1008.3 | |
| 20260505092843 | 0 | 0.0 | 0.0 | 0.00 | 0.00 | 0.00 | 32 | 1008.4 | |
| 20260505092343 | 0 | 0.0 | 0.0 | 0.00 | 0.00 | 0.00 | 34 | 1008.5 | |
| 20260505091843 | 0 | 0.0 | 0.0 | 0.00 | 0.00 | 0.00 | 34 | 1008.6 | |
| 20260505091343 | 0 | 0.0 | 0.0 | 0.00 | 0.00 | 0.00 | 34 | 1008.7 | |
| 20260505090843 | 0 | 0.0 | 0.0 | 0.00 | 0.00 | 0.00 | 35 | 1008.7 | |
| 20260505090343 | 0 | 0.0 | 0.0 | 0.00 | 0.00 | 0.00 | 35 | 1008.7 | |
| 20260505085843 | 0 | 0.0 | 0.0 | 0.00 | 0.00 | 0.00 | 36 | 1008.7 | |
| 20260505085343 | 0 | 0.0 | 0.0 | 0.00 | 0.00 | 0.00 | 36 | 1008.6 | |
| 20260505084843 | 0 | 0.0 | 0.0 | 0.00 | 0.00 | 0.00 | 36 | 1008.7 | |
| 20260505084343 | 0 | 0.0 | 0.0 | 0.00 | 0.00 | 0.00 | 36 | 1008.8 | |
| 20260505083843 | 0 | 0.0 | 0.0 | 0.00 | 0.00 | 0.00 | 36 | 1008.8 | |
| 20260505083343 | 0 | 0.0 | 0.0 | 0.00 | 0.00 | 0.00 | 36 | 1008.8 | |
| 20260505082843 | 0 | 0.0 | 0.0 | 0.00 | 0.00 | 0.00 | 37 | 1008.8 | |
| 20260505082343 | 0 | 0.0 | 0.0 | 0.00 | 0.00 | 0.00 | 37 | 1008.9 | |
| 20260505081843 | 0 | 0.0 | 0.0 | 0.00 | 0.00 | 0.00 | 37 | 1008.9 | |
| 20260505081343 | 0 | 0.0 | 0.0 | 0.00 | 0.00 | 0.00 | 37 | 1008.9 | |
| 20260505080843 | 0 | 0.0 | 0.0 | 0.00 | 0.00 | 0.00 | 37 | 1008.9 | |
| 20260505080343 | 0 | 0.0 | 0.0 | 0.00 | 0.00 | 0.00 | 37 | 1008.9 | |
| 20260505075843 | 0 | 0.0 | 0.0 | 0.00 | 0.00 | 0.00 | 37 | 1009.0 | |
| 20260505075343 | 0 | 0.0 | 0.0 | 0.00 | 0.00 | 0.00 | 37 | 1008.9 | |
| 20260505074843 | 0 | 0.0 | 0.0 | 0.00 | 0.00 | 0.00 | 37 | 1008.9 | |
| 20260505074343 | 0 | 0.0 | 0.0 | 0.00 | 0.00 | 0.00 | 37 | 1009.0 | |
| 20260505073843 | 0 | 0.0 | 0.0 | 0.00 | 0.00 | 0.00 | 37 | 1009.2 | |
| 20260505073343 | 0 | 0.0 | 0.0 | 0.00 | 0.00 | 0.00 | 37 | 1009.1 | |
| 20260505072843 | 0 | 0.0 | 0.0 | 0.00 | 0.00 | 0.00 | 37 | 1009.1 | |
| 20260505072343 | 0 | 0.0 | 0.0 | 0.00 | 0.00 | 0.00 | 37 | 1009.1 | |
| 20260505071843 | 0 | 0.0 | 0.0 | 0.00 | 0.00 | 0.00 | 37 | 1009.2 | |
| 20260505071343 | 0 | 0.0 | 0.0 | 0.00 | 0.00 | 0.00 | 37 | 1009.3 | |
| 20260505070843 | 0 | 0.0 | 0.0 | 0.00 | 0.00 | 0.00 | 37 | 1009.3 | |
| 20260505070343 | 0 | 0.0 | 0.0 | 0.00 | 0.00 | 0.00 | 38 | 1009.2 | |
| 20260505065843 | 0 | 0.0 | 0.0 | 0.00 | 0.00 | 0.00 | 38 | 1009.0 | |
| 20260505065343 | 0 | 0.0 | 0.0 | 0.00 | 0.00 | 0.00 | 38 | 1009.2 | |
| 20260505064843 | 0 | 0.0 | 0.0 | 0.00 | 0.00 | 0.00 | 38 | 1009.1 | |
| 20260505064343 | 0 | 0.0 | 0.0 | 0.00 | 0.00 | 0.00 | 38 | 1009.1 | |
| 20260505063843 | 0 | 0.0 | 0.0 | 0.00 | 0.00 | 0.00 | 38 | 1009.2 | |
| 20260505063343 | 0 | 0.0 | 0.0 | 0.00 | 0.00 | 0.00 | 38 | 1009.2 | |
| 20260505062843 | 0 | 0.0 | 0.0 | 0.00 | 0.00 | 0.00 | 38 | 1009.4 | |
| 20260505062343 | 0 | 0.0 | 0.0 | 0.00 | 0.00 | 0.00 | 38 | 1009.3 | |
| 20260505061843 | 0 | 0.0 | 0.0 | 0.00 | 0.00 | 0.00 | 38 | 1009.4 | |
| 20260505061343 | 0 | 0.0 | 0.0 | 0.00 | 0.00 | 0.00 | 38 | 1009.4 | |
| 20260505060843 | 0 | 0.0 | 0.0 | 0.00 | 0.00 | 0.00 | 38 | 1009.3 | |
| 20260505060343 | 0 | 0.0 | 0.0 | 0.00 | 0.00 | 0.00 | 38 | 1009.4 | |
| 20260505055843 | 0 | 0.0 | 0.0 | 0.00 | 0.00 | 0.00 | 38 | 1009.3 | |
| 20260505055343 | 0 | 0.0 | 0.0 | 0.00 | 0.00 | 0.00 | 38 | 1009.2 | |
| 20260505054843 | 0 | 0.0 | 0.0 | 0.00 | 0.00 | 0.00 | 38 | 1009.3 | |
| 20260505054343 | 0 | 0.0 | 0.0 | 0.00 | 0.00 | 0.00 | 38 | 1009.2 | |
| 20260505053843 | 0 | 0.0 | 0.0 | 0.00 | 0.00 | 0.00 | 38 | 1009.2 | |
| 20260505053343 | 0 | 0.0 | 0.0 | 0.00 | 0.00 | 0.00 | 38 | 1009.0 | |
| 20260505052843 | 0 | 0.0 | 0.0 | 0.00 | 0.00 | 0.00 | 38 | 1009.0 | |
| 20260505052343 | 0 | 0.0 | 0.0 | 0.00 | 0.00 | 0.00 | 38 | 1008.9 | |
| 20260505051843 | 0 | 0.0 | 0.0 | 0.00 | 0.00 | 0.00 | 38 | 1009.0 | |
| 20260505051343 | 0 | 0.0 | 0.0 | 0.00 | 0.00 | 0.00 | 38 | 1008.9 | |
| 20260505050843 | 0 | 0.0 | 0.0 | 0.00 | 0.00 | 0.00 | 38 | 1009.0 | |
| 20260505050343 | 0 | 0.0 | 0.0 | 0.00 | 0.00 | 0.00 | 38 | 1008.9 | |
| 20260505041343 | 0 | 0.0 | 0.0 | 0.00 | 0.00 | 0.00 | 38 | 1009.2 | |
| 20260505040843 | 0 | 0.0 | 0.0 | 0.00 | 0.00 | 0.00 | 38 | 1009.3 | |
| 20260505040343 | 0 | 0.0 | 0.0 | 0.00 | 0.00 | 0.00 | 38 | 1009.2 | |
| 20260505035843 | 0 | 0.0 | 0.0 | 0.00 | 0.00 | 0.00 | 38 | 1009.3 | |
| 20260505035343 | 0 | 0.0 | 0.0 | 0.00 | 0.00 | 0.00 | 38 | 1009.2 | |
| 20260505034843 | 0 | 0.0 | 0.0 | 0.00 | 0.00 | 0.00 | 38 | 1009.2 | |
| 20260505034343 | 0 | 0.0 | 0.0 | 0.00 | 0.00 | 0.00 | 38 | 1009.2 | |
| 20260505033843 | 0 | 0.0 | 0.0 | 0.00 | 0.00 | 0.00 | 38 | 1009.3 | |
| 20260505033343 | 0 | 0.0 | 0.0 | 0.00 | 0.00 | 0.00 | 38 | 1009.1 | |
| 20260505032843 | 0 | 0.0 | 0.0 | 0.00 | 0.00 | 0.00 | 38 | 1009.1 | |
| 20260505032343 | 0 | 0.0 | 0.0 | 0.00 | 0.00 | 0.00 | 38 | 1009.3 | |
| 20260505031843 | 0 | 0.0 | 0.0 | 0.00 | 0.00 | 0.00 | 38 | 1009.4 | |
| 20260505031343 | 0 | 0.0 | 0.0 | 0.00 | 0.00 | 0.00 | 38 | 1009.6 | |
| 20260505030843 | 0 | 0.0 | 0.0 | 0.00 | 0.00 | 0.00 | 38 | 1009.6 | |
| 20260505030343 | 0 | 0.0 | 0.0 | 0.00 | 0.00 | 0.00 | 38 | 1009.7 | |
| 20260505025843 | 0 | 0.0 | 0.0 | 0.00 | 0.00 | 0.00 | 38 | 1009.7 | |
| 20260505025343 | 0 | 0.0 | 0.0 | 0.00 | 0.00 | 0.00 | 38 | 1009.6 | |
| 20260505024843 | 0 | 0.0 | 0.0 | 0.00 | 0.00 | 0.00 | 38 | 1009.8 | |
| 20260505024343 | 0 | 0.0 | 0.0 | 0.00 | 0.00 | 0.00 | 38 | 1010.0 | |
| 20260505023843 | 0 | 0.0 | 0.0 | 0.00 | 0.00 | 0.00 | 38 | 1010.1 | |
| 20260505023343 | 0 | 0.0 | 0.0 | 0.00 | 0.00 | 0.00 | 38 | 1010.2 | |
| 20260505022843 | 0 | 0.0 | 0.0 | 0.00 | 0.00 | 0.00 | 38 | 1010.2 | |
| 20260505022343 | 0 | 0.0 | 0.0 | 0.00 | 0.00 | 0.00 | 38 | 1010.3 | |
| 20260505021843 | 0 | 0.0 | 0.0 | 0.00 | 0.00 | 0.00 | 38 | 1010.3 | |
| 20260505021343 | 0 | 0.0 | 0.0 | 0.00 | 0.00 | 0.00 | 38 | 1010.3 | |
| 20260505020843 | 0 | 0.0 | 0.0 | 0.00 | 0.00 | 0.00 | 38 | 1010.5 | |
| 20260505020343 | 0 | 0.0 | 0.0 | 0.00 | 0.00 | 0.00 | 38 | 1010.3 | |
| 20260505015843 | 0 | 0.0 | 0.0 | 0.00 | 0.00 | 0.00 | 38 | 1010.4 | |
| 20260505015343 | 0 | 0.0 | 0.0 | 0.00 | 0.00 | 0.00 | 38 | 1010.3 | |
| 20260505014843 | 0 | 0.0 | 0.0 | 0.00 | 0.00 | 0.00 | 38 | 1010.4 | |
| 20260505014343 | 0 | 0.0 | 0.0 | 0.00 | 0.00 | 0.00 | 38 | 1010.4 | |
| 20260505013843 | 0 | 0.0 | 0.0 | 0.00 | 0.00 | 0.00 | 38 | 1010.4 | |
| 20260505013343 | 0 | 0.0 | 0.0 | 0.00 | 0.00 | 0.00 | 38 | 1010.6 | |
| 20260505012843 | 0 | 0.0 | 0.0 | 0.00 | 0.00 | 0.00 | 38 | 1010.6 | |
| 20260505012343 | 0 | 0.0 | 0.0 | 0.00 | 0.00 | 0.00 | 38 | 1010.7 | |
| 20260505011843 | 0 | 0.0 | 0.0 | 0.00 | 0.00 | 0.00 | 38 | 1010.9 | |
| 20260505011343 | 0 | 0.0 | 0.0 | 0.00 | 0.00 | 0.00 | 38 | 1010.9 | |
| 20260505010843 | 0 | 0.0 | 0.0 | 0.00 | 0.00 | 0.00 | 38 | 1011.0 | |
| 20260505010343 | 0 | 0.0 | 0.0 | 0.00 | 0.00 | 0.00 | 38 | 1011.0 | |
| 20260505005843 | 0 | 0.0 | 0.0 | 0.00 | 0.00 | 0.00 | 38 | 1011.1 | |
| 20260505005343 | 0 | 0.0 | 0.0 | 0.00 | 0.00 | 0.00 | 38 | 1011.3 | |
| 20260505004843 | 0 | 0.0 | 0.0 | 0.00 | 0.00 | 0.00 | 38 | 1011.3 | |
| 20260505004343 | 0 | 0.0 | 0.0 | 0.00 | 0.00 | 0.00 | 38 | 1011.4 | |
| 20260505003843 | 0 | 0.0 | 0.0 | 0.00 | 0.00 | 0.00 | 38 | 1011.5 | |
| 20260505003343 | 0 | 0.0 | 0.0 | 0.00 | 0.00 | 0.00 | 38 | 1011.6 | |
| 20260505002843 | 0 | 0.0 | 0.0 | 0.00 | 0.00 | 0.00 | 38 | 1011.7 | |
| 20260505002343 | 0 | 0.0 | 0.0 | 0.00 | 0.00 | 0.00 | 38 | 1011.9 | |
| 20260505001843 | 0 | 0.0 | 0.0 | 0.00 | 0.00 | 0.00 | 38 | 1011.9 | |
| 20260505001344 | 0 | 0.0 | 0.0 | 0.00 | 0.00 | 0.00 | 38 | 1011.9 | |
| 20260505000843 | 0 | 0.0 | 0.0 | 0.00 | 0.00 | 0.00 | 38 | 1012.0 | |
| 20260505000343 | 0 | 0.0 | 0.0 | 0.00 | 0.00 | 0.00 | 38 | 1012.0 | |
| 20260504235843 | 0 | 0.0 | 0.0 | 0.00 | 0.00 | 0.00 | 38 | 1012.1 | |
| 20260504235343 | 0 | 0.0 | 0.0 | 0.00 | 0.00 | 0.00 | 38 | 1012.3 | |
| 20260504234843 | 0 | 0.0 | 0.0 | 0.00 | 0.00 | 0.00 | 38 | 1012.3 | |
| 20260504234343 | 0 | 0.0 | 0.0 | 0.00 | 0.00 | 0.00 | 38 | 1012.5 | |
| 20260504233843 | 0 | 0.0 | 0.0 | 0.00 | 0.00 | 0.00 | 38 | 1012.6 | |
| 20260504233343 | 0 | 0.0 | 0.0 | 0.00 | 0.00 | 0.00 | 38 | 1012.7 | |
| 20260504232843 | 0 | 0.0 | 0.0 | 0.00 | 0.00 | 0.00 | 38 | 1012.7 | |
| 20260504232343 | 0 | 0.0 | 0.0 | 0.00 | 0.00 | 0.00 | 38 | 1012.8 | |
| 20260504231843 | 0 | 0.0 | 0.0 | 0.00 | 0.00 | 0.00 | 38 | 1013.0 | |
| 20260504231343 | 0 | 0.0 | 0.0 | 0.00 | 0.00 | 0.00 | 38 | 1013.0 | |
| 20260504230843 | 0 | 0.0 | 0.0 | 0.00 | 0.00 | 0.00 | 38 | 1013.0 | |
| 20260504230343 | 0 | 0.0 | 0.0 | 0.00 | 0.00 | 0.00 | 38 | 1012.9 | |
| 20260504225843 | 0 | 0.0 | 0.0 | 0.00 | 0.00 | 0.00 | 38 | 1012.9 | |
| 20260504225343 | 0 | 0.0 | 0.0 | 0.00 | 0.00 | 0.00 | 38 | 1012.9 | |
| 20260504224843 | 0 | 0.0 | 0.0 | 0.00 | 0.00 | 0.00 | 38 | 1012.8 | |
| 20260504224343 | 0 | 0.0 | 0.0 | 0.00 | 0.00 | 0.00 | 38 | 1012.9 | |
| 20260504223843 | 0 | 0.0 | 0.0 | 0.00 | 0.00 | 0.00 | 38 | 1012.9 | |
| 20260504223343 | 0 | 0.0 | 0.0 | 0.00 | 0.00 | 0.00 | 38 | 1013.0 | |
| 20260504222843 | 0 | 0.0 | 0.0 | 0.00 | 0.00 | 0.00 | 38 | 1013.0 | |
| 20260504222343 | 0 | 0.0 | 0.0 | 0.00 | 0.00 | 0.00 | 38 | 1012.9 | |
| 20260504221843 | 0 | 0.0 | 0.0 | 0.00 | 0.00 | 0.00 | 38 | 1013.1 | |
| 20260504221343 | 0 | 0.0 | 0.0 | 0.00 | 0.00 | 0.00 | 38 | 1013.1 | |
| 20260504220843 | 0 | 0.0 | 0.0 | 0.00 | 0.00 | 0.00 | 38 | 1013.1 | |
| 20260504220343 | 0 | 0.0 | 0.0 | 0.00 | 0.00 | 0.00 | 38 | 1013.2 | |
| 20260504215843 | 0 | 0.0 | 0.0 | 0.00 | 0.00 | 0.00 | 38 | 1013.3 | |
| 20260504215343 | 0 | 0.0 | 0.0 | 0.00 | 0.00 | 0.00 | 38 | 1013.4 | |
| 20260504214843 | 0 | 0.0 | 0.0 | 0.00 | 0.00 | 0.00 | 38 | 1013.4 | |
| 20260504214343 | 0 | 0.0 | 0.0 | 0.00 | 0.00 | 0.00 | 37 | 1013.4 | |
| 20260504213843 | 0 | 0.0 | 0.0 | 0.00 | 0.00 | 0.00 | 37 | 1013.5 | |
| 20260504213343 | 0 | 0.0 | 0.0 | 0.00 | 0.00 | 0.00 | 37 | 1013.7 | |
| 20260504212843 | 0 | 0.0 | 0.0 | 0.00 | 0.00 | 0.00 | 37 | 1013.6 | |
| 20260504212343 | 0 | 0.0 | 0.0 | 0.00 | 0.00 | 0.00 | 37 | 1013.7 | |
| 20260504211844 | 0 | 0.0 | 0.0 | 0.00 | 0.00 | 0.00 | 37 | 1013.6 | |
| 20260504211343 | 0 | 0.0 | 0.0 | 0.00 | 0.00 | 0.00 | 37 | 1013.7 | |
| 20260504210843 | 0 | 0.0 | 0.0 | 0.00 | 0.00 | 0.00 | 37 | 1013.6 | |
| 20260504210343 | 0 | 0.0 | 0.0 | 0.00 | 0.00 | 0.00 | 37 | 1013.7 | |
| 20260504205843 | 0 | 0.0 | 0.0 | 0.00 | 0.00 | 0.00 | 37 | 1013.7 | |
| 20260504205343 | 0 | 0.0 | 0.0 | 0.00 | 0.00 | 0.00 | 37 | 1013.7 | |
| 20260504204843 | 0 | 0.0 | 0.0 | 0.00 | 0.00 | 0.00 | 37 | 1013.7 | |
| 20260504204343 | 0 | 0.0 | 0.0 | 0.00 | 0.00 | 0.00 | 37 | 1013.6 | |
| 20260504203843 | 0 | 0.0 | 0.0 | 0.00 | 0.00 | 0.00 | 37 | 1013.6 | |
| 20260504203343 | 0 | 0.0 | 0.0 | 0.00 | 0.00 | 0.00 | 37 | 1013.6 | |
| 20260504202843 | 0 | 0.0 | 0.0 | 0.00 | 0.00 | 0.00 | 37 | 1013.7 | |
| 20260504202343 | 0 | 0.0 | 0.0 | 0.00 | 0.00 | 0.00 | 37 | 1013.7 | |
| 20260504201843 | 0 | 0.0 | 0.0 | 0.00 | 0.00 | 0.00 | 37 | 1013.8 | |
| 20260504201343 | 0 | 0.0 | 0.0 | 0.00 | 0.00 | 0.00 | 37 | 1013.8 | |
| 20260504200843 | 0 | 0.0 | 0.0 | 0.00 | 0.00 | 0.00 | 37 | 1013.9 | |
| 20260504200343 | 0 | 0.0 | 0.0 | 0.00 | 0.00 | 0.00 | 37 | 1013.9 | |
| 20260504195843 | 0 | 0.0 | 0.0 | 0.00 | 0.00 | 0.00 | 37 | 1013.9 | |
| 20260504195343 | 0 | 0.0 | 0.0 | 0.00 | 0.00 | 0.00 | 37 | 1013.9 | |
| 20260504194843 | 0 | 0.0 | 0.0 | 0.00 | 0.00 | 0.00 | 37 | 1013.9 | |
| 20260504194343 | 0 | 0.0 | 0.0 | 0.00 | 0.00 | 0.00 | 37 | 1014.0 | |
| 20260504193843 | 0 | 0.0 | 0.0 | 0.00 | 0.00 | 0.00 | 37 | 1014.1 | |
| 20260504193343 | 0 | 0.0 | 0.0 | 0.00 | 0.00 | 0.00 | 37 | 1014.0 | |
| 20260504192843 | 0 | 0.0 | 0.0 | 0.00 | 0.00 | 0.00 | 37 | 1014.1 | |
| 20260504192343 | 0 | 0.0 | 0.0 | 0.00 | 0.00 | 0.00 | 37 | 1014.0 | |
| 20260504191843 | 0 | 0.0 | 0.0 | 0.00 | 0.00 | 0.00 | 37 | 1014.2 | |
| 20260504191343 | 0 | 0.0 | 0.0 | 0.00 | 0.00 | 0.00 | 37 | 1014.1 | |
| 20260504190843 | 0 | 0.0 | 0.0 | 0.00 | 0.00 | 0.00 | 37 | 1014.1 | |
| 20260504190343 | 0 | 0.0 | 0.0 | 0.00 | 0.00 | 0.00 | 37 | 1014.1 | |
| 20260504185843 | 0 | 0.0 | 0.0 | 0.00 | 0.00 | 0.00 | 37 | 1014.0 | |
| 20260504185343 | 0 | 0.0 | 0.0 | 0.00 | 0.00 | 0.00 | 37 | 1014.1 | |
| 20260504184843 | 0 | 0.0 | 0.0 | 0.00 | 0.00 | 0.00 | 37 | 1014.0 | |
| 20260504184343 | 0 | 0.0 | 0.0 | 0.00 | 0.00 | 0.00 | 37 | 1014.1 | |
| 20260504183843 | 0 | 0.0 | 0.0 | 0.00 | 0.00 | 0.00 | 37 | 1014.0 | |
| 20260504183343 | 0 | 0.0 | 0.0 | 0.00 | 0.00 | 0.00 | 38 | 1013.9 | |
| 20260504182843 | 0 | 0.0 | 0.0 | 0.00 | 0.00 | 0.00 | 38 | 1013.7 | |
| 20260504182343 | 0 | 0.0 | 0.0 | 0.00 | 0.00 | 0.00 | 38 | 1013.8 | |
| 20260504181843 | 0 | 0.0 | 0.0 | 0.00 | 0.00 | 0.00 | 37 | 1013.7 | |
| 20260504181343 | 0 | 0.0 | 0.0 | 0.00 | 0.00 | 0.00 | 37 | 1013.7 | |
| 20260504180843 | 0 | 0.0 | 0.0 | 0.00 | 0.00 | 0.00 | 37 | 1013.7 | |
| 20260504180343 | 0 | 0.0 | 0.0 | 0.00 | 0.00 | 0.00 | 37 | 1013.5 | |
| 20260504175843 | 0 | 0.0 | 0.0 | 0.00 | 0.00 | 0.00 | 37 | 1013.5 | |
| 20260504175343 | 0 | 0.0 | 0.0 | 0.00 | 0.00 | 0.00 | 37 | 1013.4 | |
| 20260504174843 | 0 | 0.0 | 0.0 | 0.00 | 0.00 | 0.00 | 37 | 1013.5 | |
| 20260504174343 | 0 | 0.0 | 0.0 | 0.00 | 0.00 | 0.00 | 37 | 1013.5 | |
| 20260504173843 | 0 | 0.0 | 0.0 | 0.00 | 0.00 | 0.00 | 37 | 1013.4 | |
| 20260504173343 | 0 | 0.0 | 0.0 | 0.00 | 0.00 | 0.00 | 37 | 1013.3 | |
| 20260504172843 | 0 | 0.0 | 0.0 | 0.00 | 0.00 | 0.00 | 37 | 1013.4 | |
| 20260504172343 | 0 | 0.0 | 0.0 | 0.00 | 0.00 | 0.00 | 37 | 1013.5 | |
| 20260504171843 | 0 | 0.0 | 0.0 | 0.00 | 0.00 | 0.00 | 37 | 1013.5 | |
| 20260504171343 | 0 | 0.0 | 0.0 | 0.00 | 0.00 | 0.00 | 37 | 1013.6 | |
| 20260504170843 | 0 | 0.0 | 0.0 | 0.00 | 0.00 | 0.00 | 37 | 1013.5 | |
| 20260504170343 | 0 | 0.0 | 0.0 | 0.00 | 0.00 | 0.00 | 37 | 1013.6 | |
| 20260504160343 | 0 | 0.0 | 0.0 | 0.00 | 0.00 | 0.00 | 36 | 1014.6 |